K8VGL Weather Reports


time (UTC)temp
C
wind
direction
speed
KPH
gust
KPH
rain 1hr
cm
rain 24hr
cm
rain mn
cm
humidity
%
barometer
mb
20260509101545 11 194 0.0 0.0 0.00 1.35 0.23 98 1007.5
20260509100050 11 194 0.0 4.8 0.00 1.35 0.23 98 1007.3
20260509094545 11 215 0.0 3.2 0.00 1.35 0.23 97 1007.4
20260509093044 11 191 1.6 8.0 0.03 1.35 0.23 97 1007.4
20260509091541 11 161 0.0 4.8 0.03 1.35 0.23 98 1007.5
20260509090139 11 194 1.6 11.3 0.05 1.35 0.23 97 1007.5
20260509084554 11 279 1.6 12.9 0.05 1.35 0.23 98 1007.8
20260509083058 11 183 3.2 11.3 0.03 1.32 0.20 98 1007.9
20260509081552 11 166 1.6 6.4 0.03 1.32 0.20 98 1007.9
20260509080151 11 188 0.0 4.8 0.00 1.30 0.18 98 1007.9
20260509074547 11 246 0.0 6.4 0.00 1.30 0.18 98 1007.9
20260509073043 11 179 1.6 6.4 0.03 1.30 0.18 98 1007.8
20260509071546 11 192 3.2 8.0 0.05 1.30 0.18 98 1007.9
20260509070140 11 185 1.6 4.8 0.08 1.30 0.18 98 1008.2
20260509064558 11 212 0.0 4.8 0.08 1.30 0.18 98 1008.4
20260509063052 11 212 0.0 3.2 0.10 1.27 0.15 98 1008.6
20260509061652 12 247 0.0 3.2 0.08 1.24 0.13 97 1008.7
20260509060149 12 162 4.8 9.7 0.05 1.22 0.10 97 1008.8
20260509054556 12 158 1.6 12.9 0.05 1.22 0.10 97 1009.3
20260509053041 11 175 1.6 9.7 0.00 1.17 0.05 97 1009.4
20260509051542 11 219 3.2 9.7 0.03 1.17 0.05 97 1009.4
20260509050139 11 318 0.0 9.7 0.03 1.17 0.05 97 1009.4
20260509044548 11 158 3.2 8.0 0.05 1.17 0.05 97 1009.4
20260509043057 11 148 0.0 8.0 0.05 1.17 0.05 97 1009.4
20260509041546 11 118 1.6 11.3 0.03 1.14 0.03 97 1009.4
20260509040145 11 194 3.2 11.3 0.05 1.14 0.03 97 1009.4
20260509034536 11 171 1.6 8.0 0.08 1.12 1.12 97 1009.5
20260509033036 11 164 4.8 9.7 0.10 1.12 1.12 97 1009.4
20260509031539 11 136 4.8 12.9 0.10 1.12 1.12 97 1009.4
20260509030134 11 198 3.2 8.0 0.10 1.09 1.09 97 1009.5
20260509024547 11 192 1.6 6.4 0.08 1.04 1.04 97 1009.6
20260509023047 11 165 1.6 4.8 0.08 1.02 1.02 96 1009.8
20260509021545 11 171 0.0 4.8 0.18 1.02 1.02 96 1009.8
20260509020146 11 241 4.8 16.1 0.23 0.99 0.99 97 1009.8
20260509014536 12 240 3.2 14.5 0.23 0.97 0.97 97 1009.7
20260509013041 12 236 1.6 6.4 0.25 0.94 0.94 97 1009.5
20260509011533 12 231 1.6 11.3 0.20 0.84 0.84 97 1009.6
20260509010134 12 192 1.6 8.0 0.15 0.76 0.76 96 1009.7
20260509004552 12 252 1.6 9.7 0.18 0.71 0.71 96 1009.6
20260509003049 12 270 1.6 9.7 0.18 0.69 0.69 96 1009.5
20260509001546 12 187 1.6 8.0 0.18 0.64 0.64 96 1009.5
20260509000145 12 204 0.0 11.3 0.20 0.61 0.61 96 1009.6
20260508234537 12 214 1.6 6.4 0.25 0.56 0.56 96 1010.0
20260508233037 12 202 0.0 6.4 0.25 0.51 0.51 95 1009.9
20260508231536 12 182 1.6 8.0 0.25 0.46 0.46 95 1009.7
20260508230136 12 185 1.6 6.4 0.20 0.38 0.38 95 1009.9
20260508224555 12 242 0.0 3.2 0.20 0.30 0.30 94 1010.5
20260508223050 12 298 0.0 0.0 0.23 0.25 0.25 94 1010.0
20260508221550 12 298 0.0 3.2 0.20 0.20 0.20 93 1010.1
20260508220148 12 274 0.0 3.2 0.18 0.18 0.18 93 1010.1
20260508214551 12 6 1.6 6.4 0.10 0.10 0.10 91 1010.3
20260508213057 13 323 3.2 11.3 0.03 0.03 0.03 88 1010.2
20260508211542 14 304 3.2 11.3 0.00 0.00 0.00 83 1009.9
20260508210141 15 289 0.0 1.6 0.00 0.00 0.00 78 1009.8
20260508204604 16 272 0.0 4.8 0.00 0.00 0.00 70 1009.7
20260508203058 17 179 1.6 8.0 0.00 0.00 0.00 65 1009.6
20260508201606 17 303 1.6 14.5 0.00 0.00 0.00 60 1009.7
20260508200151 17 256 3.2 9.7 0.00 0.00 0.00 60 1009.8
20260508194549 17 285 3.2 11.3 0.00 0.00 0.00 60 1009.8
20260508193054 17 149 4.8 14.5 0.00 0.00 0.00 61 1010.1
20260508191544 17 267 3.2 11.3 0.00 0.00 0.00 64 1010.4
20260508190142 17 308 1.6 6.4 0.00 0.00 0.00 65 1010.7
20260508184555 16 233 1.6 12.9 0.00 0.00 0.00 64 1010.9
20260508183055 16 310 3.2 11.3 0.00 0.00 0.00 64 1011.2
20260508181610 16 113 3.2 14.5 0.00 0.00 0.00 63 1011.4
20260508180150 16 210 4.8 14.5 0.00 0.00 0.00 63 1011.5
20260508174546 16 250 6.4 27.4 0.00 0.00 0.00 63 1011.6
20260508173048 16 178 8.0 20.9 0.00 0.00 0.00 63 1011.8
20260508171542 16 206 4.8 19.3 0.00 0.00 0.00 63 1012.0
20260508170140 16 209 6.4 24.1 0.00 0.00 0.00 62 1012.2
20260508164558 17 229 4.8 19.3 0.00 0.00 0.00 61 1012.3
20260508163053 16 174 4.8 14.5 0.00 0.00 0.00 63 1012.6
20260508161551 17 168 4.8 14.5 0.00 0.00 0.00 60 1012.9
20260508160149 17 144 4.8 19.3 0.00 0.00 0.00 61 1012.9
20260508154554 16 199 4.8 20.9 0.00 0.00 0.00 61 1013.0
20260508153046 16 334 3.2 14.5 0.00 0.00 0.00 63 1013.0
20260508151543 16 300 4.8 17.7 0.00 0.00 0.00 61 1013.1
20260508150142 16 216 4.8 16.1 0.00 0.00 0.00 62 1013.1
20260508144538 15 300 4.8 19.3 0.00 0.00 0.00 62 1013.2
20260508143037 15 196 6.4 17.7 0.00 0.00 0.00 62 1013.4
20260508141546 15 120 3.2 17.7 0.00 0.00 0.00 62 1013.6
20260508140133 14 187 6.4 17.7 0.00 0.00 0.00 63 1013.6
20260508134550 13 261 6.4 20.9 0.00 0.00 0.00 64 1013.7
20260508133051 13 185 4.8 12.9 0.00 0.00 0.00 63 1013.9
20260508131544 12 85 4.8 24.1 0.00 0.00 0.00 64 1013.9
20260508130143 12 123 4.8 17.7 0.00 0.00 0.00 64 1013.9
20260508124540 12 160 4.8 16.1 0.00 0.00 0.00 65 1013.8
20260508123037 11 163 3.2 14.5 0.00 0.00 0.00 67 1013.6
20260508121535 11 257 3.2 17.7 0.00 0.00 0.00 68 1013.9
20260508120133 10 315 1.6 14.5 0.00 0.00 0.00 69 1013.9
20260508114547 10 130 0.0 6.4 0.00 0.00 0.00 71 1013.9
20260508113055 8 140 3.2 11.3 0.00 0.00 0.00 72 1013.7
20260508111556 8 160 3.2 11.3 0.00 0.00 0.00 72 1013.7
20260508110144 8 155 3.2 6.4 0.00 0.00 0.00 72 1013.6
20260508104538 8 117 3.2 8.0 0.00 0.00 0.00 72 1013.5
20260508103048 8 202 1.6 6.4 0.00 0.00 0.00 72 1013.6